Meteo pe oră la Bolshoe Kondaurovo

Astăzi, 19 Mai, Miercuri

Timp Temperatura Precipitaţii Vânt Presiune Umiditate
00:00 +14°C° 0 mm 3 m/s 732 mmHg 94%
01:00 +14°C° 0 mm 3 m/s 732 mmHg 92%
02:00 +14°C° 0 mm 4 m/s 732 mmHg 91%
03:00 +14°C° 0.1 mm 4 m/s 732 mmHg 92%
04:00 +14°C° 0.1 mm 4 m/s 732 mmHg 93%
05:00 +14°C° 0.1 mm 5 m/s 733 mmHg 94%
06:00 +15°C° 0 mm 5 m/s 733 mmHg 89%
07:00 +16°C° 0 mm 5 m/s 733 mmHg 83%
08:00 +17°C° 0 mm 5 m/s 734 mmHg 77%
09:00 +19°C° 0.2 mm 5 m/s 734 mmHg 73%
10:00 +20°C° 0.2 mm 5 m/s 734 mmHg 69%
11:00 +20°C° 0.2 mm 5 m/s 734 mmHg 65%
12:00 +21°C° 0.3 mm 6 m/s 734 mmHg 65%
13:00 +21°C° 0.3 mm 6 m/s 734 mmHg 65%
14:00 +21°C° 0.3 mm 6 m/s 734 mmHg 66%
15:00 +20°C° 0.4 mm 5 m/s 733 mmHg 70%
16:00 +20°C° 0.4 mm 4 m/s 733 mmHg 75%
17:00 +19°C° 0.4 mm 3 m/s 733 mmHg 80%
18:00 +18°C° 1 mm 3 m/s 733 mmHg 83%
19:00 +17°C° 1 mm 4 m/s 733 mmHg 87%
20:00 +15°C° 1 mm 4 m/s 733 mmHg 91%
21:00 +14°C° 0.1 mm 4 m/s 732 mmHg 92%
22:00 +13°C° 0.1 mm 3 m/s 732 mmHg 92%
23:00 +13°C° 0.1 mm 2 m/s 732 mmHg 93%

Mâine, 20 Mai, Joi

Timp Temperatura Precipitaţii Vânt Presiune Umiditate
00:00 +12°C° 0.1 mm 4 m/s 731 mmHg 93%
01:00 +12°C° 0.1 mm 5 m/s 731 mmHg 93%
02:00 +11°C° 0.1 mm 6 m/s 730 mmHg 92%
03:00 +10°C° 0 mm 7 m/s 730 mmHg 92%
04:00 +10°C° 0 mm 7 m/s 730 mmHg 92%
05:00 +10°C° 0 mm 8 m/s 730 mmHg 92%
06:00 +11°C° 0.1 mm 8 m/s 730 mmHg 92%
07:00 +11°C° 0.1 mm 8 m/s 730 mmHg 91%
08:00 +11°C° 0.1 mm 8 m/s 730 mmHg 90%
09:00 +11°C° 0.3 mm 8 m/s 731 mmHg 91%
10:00 +11°C° 0.3 mm 7 m/s 731 mmHg 92%
11:00 +11°C° 0.3 mm 7 m/s 731 mmHg 92%
12:00 +11°C° 0.1 mm 7 m/s 732 mmHg 91%
13:00 +12°C° 0.1 mm 7 m/s 732 mmHg 90%
14:00 +12°C° 0.1 mm 7 m/s 733 mmHg 88%
15:00 +13°C° 0.1 mm 6 m/s 733 mmHg 88%
16:00 +13°C° 0.1 mm 5 m/s 734 mmHg 87%
17:00 +14°C° 0.1 mm 5 m/s 734 mmHg 86%
18:00 +13°C° 0 mm 4 m/s 734 mmHg 88%
19:00 +12°C° 0 mm 4 m/s 735 mmHg 90%
20:00 +11°C° 0 mm 3 m/s 735 mmHg 92%
21:00 +11°C° 0 mm 3 m/s 735 mmHg 92%
22:00 +10°C° 0 mm 3 m/s 736 mmHg 93%
23:00 +10°C° 0 mm 3 m/s 736 mmHg 93%

Poimâine, 21 Mai, Vineri

Timp Temperatura Precipitaţii Vânt Presiune Umiditate
00:00 +10°C° 0 mm 4 m/s 736 mmHg 92%
01:00 +8°C° 0 mm 4 m/s 736 mmHg 92%
02:00 +8°C° 0 mm 4 m/s 737 mmHg 92%
03:00 +8°C° 0 mm 4 m/s 737 mmHg 92%
04:00 +8°C° 0 mm 4 m/s 737 mmHg 92%
05:00 +8°C° 0 mm 4 m/s 737 mmHg 91%
06:00 +8°C° 0 mm 4 m/s 738 mmHg 90%
07:00 +10°C° 0 mm 4 m/s 738 mmHg 88%
08:00 +10°C° 0 mm 4 m/s 739 mmHg 86%
09:00 +11°C° 0 mm 4 m/s 739 mmHg 82%
10:00 +12°C° 0 mm 4 m/s 739 mmHg 78%
11:00 +14°C° 0 mm 4 m/s 740 mmHg 73%
12:00 +14°C° 0 mm 4 m/s 740 mmHg 69%
13:00 +16°C° 0 mm 3 m/s 740 mmHg 65%
14:00 +17°C° 0 mm 3 m/s 740 mmHg 61%
15:00 +17°C° 0 mm 2 m/s 740 mmHg 64%
16:00 +17°C° 0 mm 2 m/s 740 mmHg 66%
17:00 +18°C° 0 mm 1 m/s 740 mmHg 69%
18:00 +16°C° 0 mm 1 m/s 740 mmHg 71%
19:00 +14°C° 0 mm 1 m/s 741 mmHg 74%
20:00 +13°C° 0 mm 1 m/s 741 mmHg 77%
21:00 +13°C° 0 mm 1 m/s 741 mmHg 79%
22:00 +13°C° 0 mm 1 m/s 741 mmHg 81%
23:00 +12°C° 0 mm 1 m/s 741 mmHg 83%

22 Mai, Sâmbătă

Timp Temperatura Precipitaţii Vânt Presiune Umiditate
00:00 +12°C° 0 mm 1 m/s 741 mmHg 83%
01:00 +12°C° 0 mm 1 m/s 741 mmHg 84%
02:00 +11°C° 0 mm 0 m/s 741 mmHg 84%
03:00 +12°C° 0 mm 1 m/s 741 mmHg 85%
04:00 +12°C° 0 mm 1 m/s 741 mmHg 85%
05:00 +12°C° 0 mm 2 m/s 741 mmHg 86%
06:00 +13°C° 0.2 mm 2 m/s 741 mmHg 85%
07:00 +12°C° 0.2 mm 3 m/s 742 mmHg 85%
08:00 +13°C° 0.2 mm 4 m/s 742 mmHg 85%
09:00 +12°C° 0.9 mm 4 m/s 742 mmHg 87%
10:00 +12°C° 0.9 mm 4 m/s 742 mmHg 89%
11:00 +12°C° 0.9 mm 4 m/s 742 mmHg 90%
12:00 +12°C° 0.2 mm 3 m/s 742 mmHg 91%
13:00 +12°C° 0.2 mm 3 m/s 742 mmHg 91%
14:00 +12°C° 0.2 mm 3 m/s 742 mmHg 92%
15:00 +12°C° 0 mm 4 m/s 741 mmHg 91%
16:00 +13°C° 0 mm 4 m/s 741 mmHg 90%
17:00 +13°C° 0 mm 4 m/s 741 mmHg 89%
18:00 +12°C° 0 mm 4 m/s 741 mmHg 91%
19:00 +12°C° 0 mm 4 m/s 741 mmHg 94%
20:00 +11°C° 0 mm 4 m/s 740 mmHg 96%
21:00 +11°C° 0 mm 4 m/s 740 mmHg 96%
22:00 +11°C° 0 mm 4 m/s 740 mmHg 96%
23:00 +11°C° 0 mm 4 m/s 740 mmHg 96%

23 Mai, Duminică

Timp Temperatura Precipitaţii Vânt Presiune Umiditate
00:00 +11°C° 0 mm 4 m/s 739 mmHg 96%
01:00 +11°C° 0 mm 4 m/s 739 mmHg 96%
02:00 +12°C° 0 mm 4 m/s 738 mmHg 96%
03:00 +12°C° 0 mm 4 m/s 738 mmHg 96%
04:00 +12°C° 0 mm 3 m/s 738 mmHg 96%
05:00 +12°C° 0 mm 3 m/s 737 mmHg 96%
06:00 +13°C° 0 mm 3 m/s 737 mmHg 94%
07:00 +14°C° 0 mm 3 m/s 737 mmHg 93%
08:00 +15°C° 0 mm 2 m/s 737 mmHg 91%
09:00 +17°C° 0 mm 2 m/s 737 mmHg 87%
10:00 +18°C° 0 mm 2 m/s 737 mmHg 84%
11:00 +20°C° 0 mm 2 m/s 736 mmHg 80%
12:00 +20°C° 0 mm 3 m/s 736 mmHg 79%
13:00 +21°C° 0 mm 3 m/s 736 mmHg 77%
14:00 +21°C° 0 mm 3 m/s 736 mmHg 76%
15:00 +21°C° 0 mm 3 m/s 736 mmHg 78%
16:00 +21°C° 0 mm 3 m/s 736 mmHg 80%
17:00 +20°C° 0 mm 2 m/s 736 mmHg 83%
18:00 +19°C° 0 mm 2 m/s 736 mmHg 85%
19:00 +18°C° 0 mm 2 m/s 736 mmHg 87%
20:00 +17°C° 0 mm 3 m/s 736 mmHg 89%
21:00 +17°C° 0 mm 2 m/s 736 mmHg 90%
22:00 +16°C° 0 mm 2 m/s 736 mmHg 90%
23:00 +15°C° 0 mm 2 m/s 736 mmHg 90%

24 Mai, Luni

Timp Temperatura Precipitaţii Vânt Presiune Umiditate
00:00 +15°C° 0 mm 2 m/s 736 mmHg 91%
01:00 +14°C° 0 mm 2 m/s 736 mmHg 92%
02:00 +14°C° 0 mm 2 m/s 736 mmHg 93%
03:00 +14°C° 0 mm 2 m/s 736 mmHg 93%
04:00 +14°C° 0 mm 2 m/s 736 mmHg 94%
05:00 +14°C° 0 mm 2 m/s 737 mmHg 94%
06:00 +15°C° 0 mm 2 m/s 737 mmHg 88%
07:00 +16°C° 0 mm 3 m/s 737 mmHg 82%
08:00 +17°C° 0 mm 3 m/s 737 mmHg 76%
09:00 +17°C° 0 mm 3 m/s 737 mmHg 75%
10:00 +18°C° 0 mm 3 m/s 737 mmHg 73%
11:00 +19°C° 0 mm 3 m/s 738 mmHg 71%
12:00 +17°C° 0.2 mm 3 m/s 738 mmHg 78%
13:00 +14°C° 0.2 mm 4 m/s 738 mmHg 85%
14:00 +12°C° 0.2 mm 4 m/s 739 mmHg 92%
15:00 +12°C° 0.4 mm 4 m/s 739 mmHg 92%
16:00 +11°C° 0.4 mm 3 m/s 739 mmHg 93%
17:00 +12°C° 0.4 mm 2 m/s 739 mmHg 94%
18:00 +12°C° 0.1 mm 2 m/s 740 mmHg 94%
19:00 +10°C° 0.1 mm 2 m/s 740 mmHg 94%
20:00 +10°C° 0.1 mm 2 m/s 740 mmHg 94%
21:00 +10°C° 0 mm 2 m/s 740 mmHg 95%
22:00 +10°C° 0 mm 2 m/s 740 mmHg 95%
23:00 +9°C° 0 mm 3 m/s 740 mmHg 95%
Arată mai mult

Formular de consimțământ

Meteoprog și furnizorii noștri de servicii pot stoca și accesa date personale, precum cookies, identificatori de dispozitiv sau alte tehnologii similare pe dispozitivul dumneavoastră și procesa astfel de date pentru a personaliza conținutul și reclamele, dar și pentru a oferi caracteristici de social media și pentru a analiza traficul.

  • Stocarea și/sau accesarea informațiilor pe dispozitivul dumneavoastră

    Cookies, identificatori de dispozitiv sau alte informații pot fi stocate sau accesate pe dispozitiv în scopurile indicate mai sus.

  • Reclame și conținut personalizat, evaluarea reclamelor și a conținutului, informații despre audiențe și dezvoltarea produselor

    Reclamele și conținutul pot fi personalizate pe baza unui profil. Pot fi adăugate date suplimentare pentru a personaliza mai bine reclamele și conținutul. Performanța reclamelor și conținutului poate fi măsurată. Pot fi obținute informații despre utilizatorii care au văzut reclamele și conținutul. Aceste date pot fi utilizate pentru a dezvolta sau îmbunătăți experiența utilizatorilor, sistemele și software-ul.

Dând clic pe ‘Sunt de acord’, permiteți utilizarea cookie-urilor menționate, a identificatorilor de dispozitiv, balizelor web sau altor tehnologii similare. Setările pot fi modificate din browser-ul dispozitivului dumneavoastră.

În anumite scopuri, interesele legitime pot prima asupra consimțământului. Puteți citi mai multe informații în acest sens în Politica privind Confidențialitatea Datelor și Cookie.